Time,TemperatureF,DewpointF,PressureIn,WindDirection,WindDirectionDegrees,WindSpeedMPH,WindSpeedGustMPH,Humidity,HourlyPrecipIn,Conditions,Clouds,dailyrainin,SoftwareType,DateUTC
2013-02-20 00:01:00,34.0,33.0,-100.00,South,177,15.0,30.0,95,-99.99,,,-99.99,,2013-02-20 08:01:00,
2013-02-20 00:11:00,33.0,32.0,-100.00,South,177,18.0,34.0,95,-99.99,,,-99.99,,2013-02-20 08:11:00,
2013-02-20 00:21:00,33.0,32.0,-100.00,South,173,16.0,27.0,96,-99.99,,,-99.99,,2013-02-20 08:21:00,
2013-02-20 00:31:00,33.0,32.0,-100.00,South,173,16.0,27.0,96,-99.99,,,-99.99,,2013-02-20 08:31:00,
2013-02-20 00:41:00,33.0,32.0,-100.00,South,184,14.0,25.0,97,-99.99,,,-99.99,,2013-02-20 08:41:00,
2013-02-20 00:52:00,33.0,32.0,-100.00,South,185,14.0,21.0,97,-99.99,,,-99.99,,2013-02-20 08:52:00,
2013-02-20 01:01:00,34.0,33.0,-100.00,South,178,14.0,25.0,97,-99.99,,,-99.99,,2013-02-20 09:01:00,
2013-02-20 01:11:00,35.0,34.0,-100.00,South,175,15.0,23.0,97,-99.99,,,-99.99,,2013-02-20 09:11:00,
2013-02-20 01:21:00,35.0,34.0,-100.00,South,179,14.0,25.0,97,-99.99,,,-99.99,,2013-02-20 09:21:00,
2013-02-20 01:31:00,36.0,35.0,-100.00,South,176,14.0,23.0,97,-99.99,,,-99.99,,2013-02-20 09:31:00,
2013-02-20 01:41:00,36.0,35.0,-100.00,South,178,17.0,30.0,96,-99.99,,,-99.99,,2013-02-20 09:41:00,
2013-02-20 01:51:00,35.0,34.0,-100.00,SSW,202,13.0,31.0,95,-99.99,,,-99.99,,2013-02-20 09:51:00,
2013-02-20 02:01:00,35.0,33.0,-100.00,WNW,283,9.0,30.0,94,-99.99,,,-99.99,,2013-02-20 10:01:00,
2013-02-20 02:12:00,34.0,32.0,-100.00,WSW,256,8.0,26.0,94,-99.99,,,-99.99,,2013-02-20 10:12:00,
2013-02-20 02:21:00,34.0,32.0,-100.00,West,261,9.0,21.0,94,-99.99,,,-99.99,,2013-02-20 10:21:00,
2013-02-20 02:31:00,34.0,32.0,-100.00,NW,306,6.0,20.0,94,-99.99,,,-99.99,,2013-02-20 10:31:00,
2013-02-20 02:41:00,35.0,33.0,-100.00,NW,313,9.0,30.0,92,-99.99,,,-99.99,,2013-02-20 10:41:00,
2013-02-20 02:51:00,35.0,32.0,-100.00,NW,316,10.0,25.0,87,-99.99,,,-99.99,,2013-02-20 10:51:00,
2013-02-20 03:01:00,34.0,31.0,-100.00,NW,325,9.0,19.0,89,-99.99,,,-99.99,,2013-02-20 11:01:00,
2013-02-20 03:11:00,34.0,31.0,-100.00,West,274,9.0,29.0,90,-99.99,,,-99.99,,2013-02-20 11:11:00,
2013-02-20 03:21:00,34.0,31.0,-100.00,NW,317,8.0,22.0,89,-99.99,,,-99.99,,2013-02-20 11:21:00,
2013-02-20 03:31:00,35.0,32.0,-100.00,WNW,298,8.0,22.0,87,-99.99,,,-99.99,,2013-02-20 11:31:00,
2013-02-20 03:41:00,35.0,32.0,-100.00,WSW,240,9.0,25.0,88,-99.99,,,-99.99,,2013-02-20 11:41:00,
2013-02-20 03:52:00,35.0,32.0,-100.00,NW,310,9.0,24.0,88,-99.99,,,-99.99,,2013-02-20 11:52:00,
2013-02-20 04:01:00,34.0,31.0,-100.00,WNW,288,7.0,27.0,87,-99.99,,,-99.99,,2013-02-20 12:01:00,
2013-02-20 04:11:00,34.0,30.0,-100.00,NW,318,8.0,21.0,86,-99.99,,,-99.99,,2013-02-20 12:11:00,
2013-02-20 04:21:00,34.0,31.0,-100.00,West,268,6.0,19.0,87,-99.99,,,-99.99,,2013-02-20 12:21:00,
2013-02-20 04:31:00,34.0,31.0,-100.00,West,275,9.0,23.0,88,-99.99,,,-99.99,,2013-02-20 12:31:00,
2013-02-20 04:42:00,34.0,31.0,-100.00,West,268,10.0,23.0,88,-99.99,,,-99.99,,2013-02-20 12:42:00,
2013-02-20 04:52:00,34.0,30.0,-100.00,NW,305,7.0,24.0,84,-99.99,,,-99.99,,2013-02-20 12:52:00,
2013-02-20 05:01:00,34.0,30.0,-100.00,WNW,287,7.0,17.0,86,-99.99,,,-99.99,,2013-02-20 13:01:00,
2013-02-20 05:11:00,34.0,30.0,-100.00,WSW,254,6.0,18.0,85,-99.99,,,-99.99,,2013-02-20 13:11:00,
2013-02-20 05:22:00,34.0,30.0,-100.00,NW,304,8.0,21.0,85,-99.99,,,-99.99,,2013-02-20 13:22:00,
2013-02-20 05:31:00,33.0,29.0,-100.00,WNW,283,7.0,18.0,86,-99.99,,,-99.99,,2013-02-20 13:31:00,
2013-02-20 05:42:00,33.0,29.0,-100.00,WNW,283,7.0,18.0,86,-99.99,,,-99.99,,2013-02-20 13:42:00,
2013-02-20 05:51:00,33.0,29.0,-100.00,WNW,283,7.0,18.0,86,-99.99,,,-99.99,,2013-02-20 13:51:00,
2013-02-20 06:01:00,33.0,31.0,-100.00,WSW,250,9.0,22.0,91,-99.99,,,-99.99,,2013-02-20 14:01:00,
2013-02-20 06:11:00,33.0,30.0,-100.00,NW,313,9.0,23.0,87,-99.99,,,-99.99,,2013-02-20 14:11:00,
2013-02-20 06:21:00,32.0,28.0,-100.00,NW,314,11.0,26.0,86,-99.99,,,-99.99,,2013-02-20 14:21:00,
2013-02-20 06:32:00,32.0,29.0,-100.00,NW,318,9.0,24.0,88,-99.99,,,-99.99,,2013-02-20 14:32:00,
2013-02-20 06:42:00,33.0,29.0,-100.00,WNW,286,7.0,21.0,85,-99.99,,,-99.99,,2013-02-20 14:42:00,
2013-02-20 06:52:00,33.0,28.0,-100.00,NW,315,12.0,29.0,82,-99.99,,,-99.99,,2013-02-20 14:52:00,
2013-02-20 07:01:00,33.0,27.0,-100.00,NW,309,12.0,29.0,79,-99.99,,,-99.99,,2013-02-20 15:01:00,
2013-02-20 07:11:00,33.0,29.0,-100.00,NW,304,13.0,27.0,84,-99.99,,,-99.99,,2013-02-20 15:11:00,
2013-02-20 07:22:00,33.0,29.0,-100.00,NW,322,10.0,27.0,84,-99.99,,,-99.99,,2013-02-20 15:22:00,
2013-02-20 07:31:00,33.0,28.0,-100.00,NW,324,9.0,26.0,82,-99.99,,,-99.99,,2013-02-20 15:31:00,
2013-02-20 07:41:00,33.0,28.0,-100.00,NW,324,10.0,32.0,82,-99.99,,,-99.99,,2013-02-20 15:41:00,
2013-02-20 07:51:00,33.0,28.0,-100.00,NW,311,10.0,24.0,82,-99.99,,,-99.99,,2013-02-20 15:51:00,
2013-02-20 08:01:00,33.0,28.0,-100.00,NW,323,9.0,23.0,82,-99.99,,,-99.99,,2013-02-20 16:01:00,
2013-02-20 08:11:00,34.0,28.0,-100.00,NW,307,6.0,24.0,80,-99.99,,,-99.99,,2013-02-20 16:11:00,
2013-02-20 08:21:00,33.0,28.0,-100.00,NW,322,9.0,23.0,83,-99.99,,,-99.99,,2013-02-20 16:21:00,
2013-02-20 08:32:00,32.0,29.0,-100.00,NW,306,10.0,22.0,89,-99.99,,,-99.99,,2013-02-20 16:32:00,
2013-02-20 08:41:00,32.0,28.0,-100.00,NW,317,11.0,25.0,86,-99.99,,,-99.99,,2013-02-20 16:41:00,
2013-02-20 08:51:00,33.0,29.0,-100.00,NW,311,7.0,19.0,86,-99.99,,,-99.99,,2013-02-20 16:51:00,
2013-02-20 09:01:00,33.0,29.0,-100.00,NW,311,7.0,19.0,86,-99.99,,,-99.99,,2013-02-20 17:01:00,
2013-02-20 09:11:00,33.0,28.0,-100.00,West,269,8.0,21.0,82,-99.99,,,-99.99,,2013-02-20 17:11:00,
2013-02-20 09:21:00,34.0,29.0,-100.00,WNW,283,4.0,14.0,83,-99.99,,,-99.99,,2013-02-20 17:21:00,
2013-02-20 09:32:00,34.0,29.0,-100.00,WNW,297,9.0,23.0,83,-99.99,,,-99.99,,2013-02-20 17:32:00,
2013-02-20 09:41:00,34.0,29.0,-100.00,WNW,299,10.0,24.0,81,-99.99,,,-99.99,,2013-02-20 17:41:00,
2013-02-20 09:52:00,34.0,28.0,-100.00,WNW,301,8.0,20.0,79,-99.99,,,-99.99,,2013-02-20 17:52:00,
2013-02-20 10:02:00,36.0,29.0,-100.00,NW,311,9.0,20.0,74,-99.99,,,-99.99,,2013-02-20 18:02:00,
2013-02-20 10:11:00,36.0,29.0,-100.00,NW,313,10.0,27.0,75,-99.99,,,-99.99,,2013-02-20 18:11:00,
2013-02-20 10:21:00,36.0,28.0,-100.00,NW,312,12.0,27.0,72,-99.99,,,-99.99,,2013-02-20 18:21:00,
2013-02-20 10:31:00,36.0,29.0,-100.00,WNW,301,12.0,25.0,74,-99.99,,,-99.99,,2013-02-20 18:31:00,
2013-02-20 10:41:00,35.0,29.0,-100.00,NW,310,11.0,23.0,77,-99.99,,,-99.99,,2013-02-20 18:41:00,
2013-02-20 10:51:00,35.0,28.0,-100.00,WNW,300,9.0,20.0,76,-99.99,,,-99.99,,2013-02-20 18:51:00,
2013-02-20 11:01:00,36.0,29.0,-100.00,WNW,296,9.0,17.0,74,-99.99,,,-99.99,,2013-02-20 19:01:00,
2013-02-20 11:11:00,37.0,28.0,-100.00,WNW,297,8.0,18.0,71,-99.99,,,-99.99,,2013-02-20 19:11:00,
2013-02-20 11:21:00,37.0,27.0,-100.00,NW,304,8.0,17.0,68,-99.99,,,-99.99,,2013-02-20 19:21:00,
2013-02-20 11:31:00,38.0,29.0,-100.00,WNW,283,5.0,13.0,69,-99.99,,,-99.99,,2013-02-20 19:31:00,
2013-02-20 11:41:00,38.0,29.0,-100.00,WNW,283,5.0,13.0,69,-99.99,,,-99.99,,2013-02-20 19:41:00,
2013-02-20 11:51:00,38.0,29.0,-100.00,West,268,8.0,19.0,70,-99.99,,,-99.99,,2013-02-20 19:51:00,
2013-02-20 12:01:00,38.0,29.0,-100.00,West,268,8.0,19.0,70,-99.99,,,-99.99,,2013-02-20 20:01:00,
2013-02-20 12:11:00,38.0,27.0,-100.00,WNW,294,6.0,17.0,64,-99.99,,,-99.99,,2013-02-20 20:11:00,
2013-02-20 12:21:00,37.0,26.0,-100.00,West,259,5.0,16.0,64,-99.99,,,-99.99,,2013-02-20 20:21:00,
2013-02-20 12:31:00,38.0,27.0,-100.00,WNW,283,7.0,18.0,64,-99.99,,,-99.99,,2013-02-20 20:31:00,
2013-02-20 12:41:00,38.0,27.0,-100.00,WNW,286,7.0,17.0,63,-99.99,,,-99.99,,2013-02-20 20:41:00,
2013-02-20 12:51:00,38.0,27.0,-100.00,WNW,283,10.0,17.0,64,-99.99,,,-99.99,,2013-02-20 20:51:00,
2013-02-20 13:01:00,37.0,26.0,-100.00,West,272,8.0,21.0,63,-99.99,,,-99.99,,2013-02-20 21:01:00,
2013-02-20 13:11:00,38.0,27.0,-100.00,West,265,7.0,16.0,64,-99.99,,,-99.99,,2013-02-20 21:11:00,
2013-02-20 13:21:00,38.0,26.0,-100.00,NW,314,6.0,16.0,62,-99.99,,,-99.99,,2013-02-20 21:21:00,
2013-02-20 13:31:00,39.0,27.0,-100.00,West,260,7.0,14.0,61,-99.99,,,-99.99,,2013-02-20 21:31:00,
2013-02-20 13:41:00,39.0,27.0,-100.00,West,275,7.0,16.0,62,-99.99,,,-99.99,,2013-02-20 21:41:00,
2013-02-20 13:51:00,39.0,26.0,-100.00,WNW,289,8.0,19.0,59,-99.99,,,-99.99,,2013-02-20 21:51:00,
2013-02-20 14:01:00,39.0,26.0,-100.00,WNW,289,8.0,19.0,59,-99.99,,,-99.99,,2013-02-20 22:01:00,
2013-02-20 14:11:00,40.0,27.0,-100.00,WNW,289,6.0,14.0,60,-99.99,,,-99.99,,2013-02-20 22:11:00,
2013-02-20 14:21:00,40.0,27.0,-100.00,WNW,289,6.0,14.0,60,-99.99,,,-99.99,,2013-02-20 22:21:00,
2013-02-20 14:31:00,39.0,26.0,-100.00,West,275,7.0,15.0,59,-99.99,,,-99.99,,2013-02-20 22:31:00,
2013-02-20 14:41:00,39.0,26.0,-100.00,West,261,8.0,15.0,60,-99.99,,,-99.99,,2013-02-20 22:41:00,
2013-02-20 14:51:00,39.0,27.0,-100.00,West,266,6.0,14.0,63,-99.99,,,-99.99,,2013-02-20 22:51:00,
2013-02-20 15:01:00,39.0,28.0,-100.00,West,270,7.0,14.0,64,-99.99,,,-99.99,,2013-02-20 23:01:00,
2013-02-20 15:12:00,39.0,28.0,-100.00,West,271,6.0,12.0,64,-99.99,,,-99.99,,2013-02-20 23:12:00,
2013-02-20 15:22:00,39.0,27.0,-100.00,West,279,9.0,18.0,62,-99.99,,,-99.99,,2013-02-20 23:22:00,
2013-02-20 15:31:00,40.0,28.0,-100.00,West,272,8.0,17.0,61,-99.99,,,-99.99,,2013-02-20 23:31:00,
2013-02-20 15:42:00,39.0,27.0,-100.00,West,274,7.0,18.0,61,-99.99,,,-99.99,,2013-02-20 23:42:00,
2013-02-20 15:52:00,40.0,28.0,-100.00,West,276,5.0,11.0,63,-99.99,,,-99.99,,2013-02-20 23:52:00,
2013-02-20 16:02:00,40.0,28.0,-100.00,WSW,240,8.0,17.0,63,-99.99,,,-99.99,,2013-02-21 00:02:00,
2013-02-20 16:11:00,39.0,28.0,-100.00,WSW,253,8.0,16.0,64,-99.99,,,-99.99,,2013-02-21 00:11:00,
2013-02-20 16:21:00,40.0,29.0,-100.00,WSW,246,6.0,13.0,64,-99.99,,,-99.99,,2013-02-21 00:21:00,
2013-02-20 16:31:00,40.0,29.0,-100.00,South,175,4.0,9.0,65,-99.99,,,-99.99,,2013-02-21 00:31:00,
2013-02-20 16:41:00,40.0,29.0,-100.00,South,175,4.0,9.0,65,-99.99,,,-99.99,,2013-02-21 00:41:00,
2013-02-20 16:52:00,40.0,29.0,-100.00,South,175,4.0,9.0,65,-99.99,,,-99.99,,2013-02-21 00:52:00,
2013-02-20 17:01:00,40.0,29.0,-100.00,South,175,4.0,9.0,65,-99.99,,,-99.99,,2013-02-21 01:01:00,
2013-02-20 17:11:00,40.0,30.0,-100.00,SSE,163,4.0,12.0,68,-99.99,,,-99.99,,2013-02-21 01:11:00,
2013-02-20 17:21:00,39.0,31.0,-100.00,SSW,212,7.0,20.0,72,-99.99,,,-99.99,,2013-02-21 01:21:00,
2013-02-20 17:32:00,39.0,31.0,-100.00,WSW,241,7.0,18.0,73,-99.99,,,-99.99,,2013-02-21 01:32:00,
2013-02-20 17:41:00,39.0,31.0,-100.00,WSW,251,7.0,15.0,74,-99.99,,,-99.99,,2013-02-21 01:41:00,
2013-02-20 17:51:00,39.0,32.0,-100.00,WSW,246,7.0,19.0,75,-99.99,,,-99.99,,2013-02-21 01:51:00,
2013-02-20 18:01:00,38.0,30.0,-100.00,SW,222,5.0,15.0,74,-99.99,,,-99.99,,2013-02-21 02:01:00,
2013-02-20 18:11:00,38.0,30.0,-100.00,WNW,296,6.0,16.0,74,-99.99,,,-99.99,,2013-02-21 02:11:00,
2013-02-20 18:21:00,38.0,31.0,-100.00,South,174,3.0,8.0,75,-99.99,,,-99.99,,2013-02-21 02:21:00,
2013-02-20 18:32:00,38.0,32.0,-100.00,WSW,242,5.0,10.0,79,-99.99,,,-99.99,,2013-02-21 02:32:00,
2013-02-20 18:42:00,38.0,32.0,-100.00,WSW,242,5.0,10.0,79,-99.99,,,-99.99,,2013-02-21 02:42:00,
2013-02-20 18:51:00,38.0,32.0,-100.00,WSW,242,5.0,10.0,79,-99.99,,,-99.99,,2013-02-21 02:51:00,
2013-02-20 19:01:00,37.0,32.0,-100.00,SW,228,4.0,10.0,81,-99.99,,,-99.99,,2013-02-21 03:01:00,
2013-02-20 19:11:00,37.0,32.0,-100.00,SSW,193,4.0,9.0,81,-99.99,,,-99.99,,2013-02-21 03:11:00,
2013-02-20 19:21:00,37.0,31.0,-100.00,ENE,71,2.0,7.0,80,-99.99,,,-99.99,,2013-02-21 03:21:00,
2013-02-20 19:31:00,37.0,31.0,-100.00,NNE,18,2.0,5.0,80,-99.99,,,-99.99,,2013-02-21 03:31:00,
2013-02-20 19:41:00,37.0,31.0,-100.00,WSW,239,3.0,9.0,80,-99.99,,,-99.99,,2013-02-21 03:41:00,
2013-02-20 19:51:00,36.0,30.0,-100.00,WNW,283,1.0,3.0,79,-99.99,,,-99.99,,2013-02-21 03:51:00,
2013-02-20 20:01:00,36.0,30.0,-100.00,WSW,249,2.0,5.0,79,-99.99,,,-99.99,,2013-02-21 04:01:00,
2013-02-20 20:11:00,36.0,30.0,-100.00,WNW,292,2.0,5.0,79,-99.99,,,-99.99,,2013-02-21 04:11:00,
2013-02-20 20:21:00,36.0,30.0,-100.00,WNW,284,3.0,7.0,78,-99.99,,,-99.99,,2013-02-21 04:21:00,
2013-02-20 20:31:00,36.0,30.0,-100.00,WNW,299,4.0,7.0,78,-99.99,,,-99.99,,2013-02-21 04:31:00,
2013-02-20 20:41:00,36.0,30.0,-100.00,WNW,284,4.0,5.0,79,-99.99,,,-99.99,,2013-02-21 04:41:00,
2013-02-20 20:51:00,36.0,30.0,-100.00,WNW,298,4.0,6.0,79,-99.99,,,-99.99,,2013-02-21 04:51:00,
2013-02-20 21:02:00,36.0,30.0,-100.00,WNW,298,4.0,6.0,79,-99.99,,,-99.99,,2013-02-21 05:02:00,
2013-02-20 21:12:00,34.0,29.0,-100.00,NNW,340,3.0,5.0,83,-99.99,,,-99.99,,2013-02-21 05:12:00,
2013-02-20 21:21:00,34.0,30.0,-100.00,NW,321,3.0,4.0,85,-99.99,,,-99.99,,2013-02-21 05:21:00,
2013-02-20 21:32:00,31.0,28.0,-100.00,South,172,2.0,4.0,88,-99.99,,,-99.99,,2013-02-21 05:32:00,
2013-02-20 21:42:00,31.0,28.0,-100.00,South,172,2.0,4.0,88,-99.99,,,-99.99,,2013-02-21 05:42:00,
2013-02-20 21:52:00,31.0,29.0,-100.00,NW,319,2.0,4.0,91,-99.99,,,-99.99,,2013-02-21 05:52:00,
2013-02-20 22:01:00,31.0,29.0,-100.00,NW,319,2.0,4.0,91,-99.99,,,-99.99,,2013-02-21 06:01:00,
2013-02-20 22:11:00,29.0,27.0,-100.00,South,173,3.0,6.0,91,-99.99,,,-99.99,,2013-02-21 06:11:00,
2013-02-20 22:21:00,29.0,27.0,-100.00,South,173,3.0,6.0,91,-99.99,,,-99.99,,2013-02-21 06:21:00,
2013-02-20 22:31:00,29.0,27.0,-100.00,WSW,245,1.0,2.0,94,-99.99,,,-99.99,,2013-02-21 06:31:00,
2013-02-20 22:41:00,29.0,27.0,-100.00,WSW,245,1.0,2.0,94,-99.99,,,-99.99,,2013-02-21 06:41:00,
2013-02-20 22:51:00,29.0,27.0,-100.00,WSW,238,1.0,2.0,94,-99.99,,,-99.99,,2013-02-21 06:51:00,
2013-02-20 23:01:00,30.0,28.0,-100.00,ENE,72,1.0,1.0,94,-99.99,,,-99.99,,2013-02-21 07:01:00,
2013-02-20 23:11:00,29.0,27.0,-100.00,East,96,1.0,1.0,94,-99.99,,,-99.99,,2013-02-21 07:11:00,
2013-02-20 23:21:00,30.0,28.0,-100.00,North,354,1.0,2.0,94,-99.99,,,-99.99,,2013-02-21 07:21:00,
2013-02-20 23:31:00,29.0,27.0,-100.00,NE,42,2.0,2.0,93,-99.99,,,-99.99,,2013-02-21 07:31:00,
2013-02-20 23:41:00,29.0,27.0,-100.00,NNE,26,3.0,6.0,94,-99.99,,,-99.99,,2013-02-21 07:41:00,
2013-02-20 23:52:00,28.0,27.0,-100.00,NNE,13,2.0,6.0,94,-99.99,,,-99.99,,2013-02-21 07:52:00,